Location: Boda
(47.1872°N, 9.5454°E)
Time: 09:00:27
(UTC+00:00)

IDEFIX/ARIANE 42P - Pass Details

Date: 14 May 2021
Orbit: 786 x 802 km, 98.4° (Epoch: 17 June)

Event Time Altitude Azimuth Distance (km) Brightness Sun altitude
Rises 02:33:34 0° 11° (N) 3,320 6.8 -10.9°
Reaches altitude 10° 02:35:55 10° 9° (N) 2,387 5.9 -10.6°
Maximum altitude 02:41:08 65° 288° (WNW) 880 2.7 -9.9°
Drops below altitude 10° 02:46:20 10° 208° (SSW) 2,374 4.5 -9.3°
Enters shadow 02:46:27 - 208° (SSW) 2,422 4.5 -9.3°
